Location: Seminole
(32.7190°N, 102.6440°W)
Time: 13:56:43
(UTC-05:00)

Meteor 2-10 - Visible Passes

Search period start: 30 October 2014 00:00
Search period end: 08 November 2014 23:00
Orbit: 740 x 868 km, 81.2° (Epoch: 29 October)

Date Brightness Start Highest point End Pass type
(mag) Time Alt. Az. Time Alt. Az. Time Alt. Az.
30 Oct 5.0 21:11:34 10° S 21:14:39 37° S 21:14:39 37° S visible
31 Oct 4.1 20:45:50 10° S 20:51:07 59° E 20:51:21 59° E visible
31 Oct 6.9 22:30:47 10° W 22:32:33 13° W 22:32:33 13° W visible
01 Nov 6.3 07:24:15 10° NNE 07:29:09 29° ENE 07:33:56 10° SE visible
01 Nov 4.5 20:20:22 10° SSE 20:25:21 39° E 20:28:41 20° NE visible
01 Nov 6.4 22:03:22 10° WSW 22:07:24 21° WNW 22:09:59 15° NW visible
02 Nov 6.9 05:59:03 10° NNE 06:03:07 20° ENE 06:07:05 10° ESE visible
02 Nov 5.0 18:55:12 10° SE 18:59:38 26° E 19:04:10 10° NE visible
02 Nov 5.8 20:36:35 10° SW 20:41:21 31° WNW 20:46:17 10° NNW visible
03 Nov 7.1 05:34:26 10° NE 05:37:00 13° ENE 05:39:33 10° E visible
03 Nov 5.5 18:30:29 10° SE 18:33:58 17° E 18:37:30 10° NE visible
03 Nov 5.1 20:10:10 10° SSW 20:15:23 46° WNW 20:20:47 10° N visible
04 Nov 4.4 19:44:02 10° SSW 19:49:28 70° W 19:55:06 10° N visible
05 Nov 5.0 06:22:09 10° N 06:27:43 57° E 06:33:05 10° SSE visible
05 Nov 4.1 19:18:08 10° S 19:23:36 79° E 19:29:16 10° N visible
05 Nov 7.2 21:05:25 10° WNW 21:06:12 10° WNW 21:06:59 10° WNW visible
06 Nov 5.7 05:56:33 10° N 06:01:46 38° ENE 06:06:48 10° SE visible
06 Nov 4.3 18:52:29 10° SSE 18:57:48 52° E 19:03:17 10° NNE visible
06 Nov 6.8 20:36:43 10° WSW 20:40:04 16° WNW 20:43:28 10° NNW visible
07 Nov 6.3 05:31:10 10° NNE 05:35:46 25° ENE 05:40:14 10° SE visible
07 Nov 4.8 18:27:07 10° SSE 18:32:03 35° E 18:37:07 10° NNE visible
07 Nov 6.3 20:09:35 10° SW 20:13:59 24° WNW 20:18:30 10° NNW visible
08 Nov 6.9 05:06:07 10° NNE 05:09:42 17° ENE 05:13:12 10° ESE visible
08 Nov 4.4 06:46:32 10° NNW 06:51:54 48° W 06:57:04 10° SSW visible
08 Nov 5.7 19:42:57 10° SW 19:47:58 35° WNW 19:53:09 10° N visible
